Location: Callao
(39.8979°N, 113.7141°W)
Time: 07:41:36
(UTC+00:00)

Hubble Space Telescope - Visible Passes

Search period start: 26 February 2021 00:00
Search period end: 08 March 2021 00:00
Orbit: 536 x 539 km, 28.5° (Epoch: 26 February)

Date Brightness Start Highest point End Pass type
(mag) Time Alt. Az. Time Alt. Az. Time Alt. Az.
05 Mar 3.2 02:56:03 10° S 02:56:41 10° SSE 02:56:44 10° SSE visible
06 Mar 3.0 02:44:08 10° S 02:45:40 12° SSE 02:46:39 11° SSE visible
07 Mar 3.0 02:32:41 10° SSW 02:34:41 13° SSE 02:36:32 10° SE visible
